Location: Edinburgh
(55.9500°N, 3.1600°W)
Time: 09:26:36
(UTC+01:00)

N. Korean satellite - Pass Details

Date: 08 October 2017
Orbit: 459 x 517 km, 97.2° (Epoch: 20 October)

Event Time Altitude Azimuth Distance (km) Brightness Sun altitude
Rises 20:30:46 0° 218° (SW) 2,566 10.5 -17.7°
Reaches altitude 10° 20:34:09 10° 253° (WSW) 1,675 10.1 -18.1°
Maximum altitude 20:35:26 12° 274° (W) 1,577 10.3 -18.3°
Drops below altitude 10° 20:36:43 10° 295° (WNW) 1,669 10.5 -18.5°
Sets 20:40:04 0° 330° (NNW) 2,540 11.0 -18.9°
